CMP158 SEQM-MPTO

Flight info

Callsign CMP158
Flight time 1h 25m
Altitude 36000
Route NEGAL3 NEGAL DCT ENSOL UM674 TOKUT MILAT SIRIL SIRIL3
Aircraft B38M/M-SDE3FGHIRWY/S

Departure

Time 2026-05-04 02:49
Airport Mariscal Sucre International Airport (SEQM)

Arrival

Time 2026-05-04 04:14
Airport Tocumen International Airport (MPTO)
Time Latitude Longitude Altitude Speed Heading
2026-05-04 02:17 -0.12613 -78.35911 7845 ft 0 kts 266°
2026-05-04 02:38 -0.12613 -78.35908 7845 ft 2 kts 266°
2026-05-04 02:38 -0.12611 -78.35897 7845 ft 2 kts 261°
2026-05-04 02:38 -0.12608 -78.35881 7835 ft 2 kts 253°
2026-05-04 02:38 -0.12602 -78.35866 7838 ft 2 kts 242°
2026-05-04 02:39 -0.12593 -78.35852 7838 ft 2 kts 226°
2026-05-04 02:39 -0.12580 -78.35842 7839 ft 2 kts 207°
2026-05-04 02:39 -0.12565 -78.35837 7839 ft 2 kts 190°
2026-05-04 02:39 -0.12550 -78.35835 7838 ft 2 kts 179°
2026-05-04 02:40 -0.12544 -78.35835 7839 ft 0 kts 177°
2026-05-04 02:44 -0.12565 -78.35834 7840 ft 6 kts 177°
2026-05-04 02:44 -0.12636 -78.35830 7845 ft 14 kts 176°
2026-05-04 02:44 -0.12694 -78.35790 7842 ft 11 kts 101°
2026-05-04 02:45 -0.12696 -78.35698 7852 ft 13 kts 88°
2026-05-04 02:45 -0.12698 -78.35626 7862 ft 9 kts 118°
2026-05-04 02:45 -0.12757 -78.35600 7866 ft 11 kts 174°
2026-05-04 02:45 -0.12857 -78.35595 7870 ft 18 kts 177°
2026-05-04 02:46 -0.13001 -78.35588 7875 ft 24 kts 177°
2026-05-04 02:46 -0.13181 -78.35580 7884 ft 28 kts 177°
2026-05-04 02:46 -0.13383 -78.35571 7888 ft 28 kts 176°
2026-05-04 02:46 -0.13594 -78.35563 7894 ft 30 kts 178°
2026-05-04 02:47 -0.13792 -78.35556 7900 ft 23 kts 178°
2026-05-04 02:47 -0.13952 -78.35549 7906 ft 23 kts 177°
2026-05-04 02:47 -0.14105 -78.35542 7916 ft 21 kts 178°
2026-05-04 02:47 -0.14209 -78.35531 7916 ft 13 kts 159°
2026-05-04 02:48 -0.14256 -78.35464 7918 ft 13 kts 91°
2026-05-04 02:48 -0.14236 -78.35380 7923 ft 11 kts 43°
2026-05-04 02:48 -0.14167 -78.35371 7917 ft 11 kts 358°
2026-05-04 02:48 -0.13923 -78.35381 7903 ft 68 kts 358°
2026-05-04 02:49 -0.13219 -78.35410 7886 ft 132 kts 357°
2026-05-04 02:49 -0.12107 -78.35456 7839 ft 185 kts 358°
2026-05-04 02:49 -0.10738 -78.35525 8238 ft 204 kts 358°
2026-05-04 02:49 -0.09273 -78.35609 8948 ft 217 kts 359°
2026-05-04 02:50 -0.07742 -78.35779 9547 ft 232 kts 348°
2026-05-04 02:50 -0.06139 -78.36250 10146 ft 251 kts 343°
2026-05-04 02:50 -0.04402 -78.36810 10695 ft 269 kts 344°
2026-05-04 02:50 -0.02595 -78.37403 11408 ft 279 kts 342°
2026-05-04 02:51 -0.00710 -78.38066 12008 ft 297 kts 342°
2026-05-04 02:51 0.01302 -78.38793 12434 ft 317 kts 342°
2026-05-04 02:51 0.03433 -78.39554 12958 ft 332 kts 342°
2026-05-04 02:51 0.05649 -78.40340 13607 ft 342 kts 342°
2026-05-04 02:52 0.07907 -78.41137 14410 ft 346 kts 342°
2026-05-04 02:52 0.10190 -78.41941 15191 ft 350 kts 342°
2026-05-04 02:52 0.12485 -78.42751 15932 ft 352 kts 342°
2026-05-04 02:52 0.14801 -78.43584 16682 ft 355 kts 339°
2026-05-04 02:53 0.17097 -78.44541 17404 ft 358 kts 339°
2026-05-04 02:53 0.19406 -78.45501 18161 ft 361 kts 339°
2026-05-04 02:53 0.21738 -78.46462 18821 ft 364 kts 339°
2026-05-04 02:53 0.24095 -78.47433 19380 ft 368 kts 339°
2026-05-04 02:54 0.26470 -78.48409 19933 ft 370 kts 339°
2026-05-04 02:54 0.28832 -78.49379 20483 ft 373 kts 339°
2026-05-04 02:54 0.31239 -78.50368 21046 ft 376 kts 339°
2026-05-04 02:54 0.33675 -78.51369 21583 ft 379 kts 339°
2026-05-04 02:55 0.38582 -78.53383 22639 ft 385 kts 339°
2026-05-04 02:55 0.41065 -78.54404 23169 ft 387 kts 339°
2026-05-04 02:55 0.43570 -78.55432 23694 ft 389 kts 339°
2026-05-04 02:56 0.46086 -78.56465 24095 ft 393 kts 340°
2026-05-04 02:56 0.48623 -78.57502 24489 ft 395 kts 341°
2026-05-04 02:56 0.51284 -78.58141 24923 ft 392 kts 355°
2026-05-04 02:56 0.54001 -78.58491 25264 ft 397 kts 354°
2026-05-04 02:57 0.56719 -78.58869 25618 ft 400 kts 355°
2026-05-04 02:57 0.59475 -78.59237 26011 ft 402 kts 355°
2026-05-04 02:57 0.62298 -78.59609 26367 ft 405 kts 355°
2026-05-04 02:57 0.65101 -78.59973 26756 ft 408 kts 355°
2026-05-04 02:58 0.67886 -78.60336 27149 ft 410 kts 355°
2026-05-04 02:58 0.70724 -78.60707 27528 ft 413 kts 355°
2026-05-04 02:58 0.73594 -78.61081 27897 ft 416 kts 355°
2026-05-04 02:58 0.76472 -78.61456 28234 ft 418 kts 355°
2026-05-04 02:59 0.79368 -78.61833 28592 ft 421 kts 355°
2026-05-04 02:59 0.82286 -78.62213 28973 ft 423 kts 355°
2026-05-04 02:59 0.85211 -78.62595 29305 ft 426 kts 355°
2026-05-04 02:59 0.88133 -78.62976 29652 ft 429 kts 355°
2026-05-04 03:00 0.91106 -78.63363 29949 ft 431 kts 355°
2026-05-04 03:00 0.94097 -78.63753 30280 ft 434 kts 355°
2026-05-04 03:00 0.97098 -78.64145 30580 ft 436 kts 355°
2026-05-04 03:00 1.00112 -78.64538 30893 ft 438 kts 355°
2026-05-04 03:01 1.03141 -78.64933 31200 ft 439 kts 355°
2026-05-04 03:01 1.06177 -78.65328 31461 ft 441 kts 355°
2026-05-04 03:01 1.09214 -78.65724 31760 ft 443 kts 355°
2026-05-04 03:01 1.12275 -78.66123 32050 ft 444 kts 355°
2026-05-04 03:02 1.15350 -78.66524 32320 ft 447 kts 356°
2026-05-04 03:02 1.18435 -78.66927 32601 ft 449 kts 356°
2026-05-04 03:02 1.21534 -78.67331 32852 ft 450 kts 356°
2026-05-04 03:02 1.24657 -78.67738 33150 ft 452 kts 356°
2026-05-04 03:03 1.27785 -78.68146 33407 ft 454 kts 356°
2026-05-04 03:03 1.30879 -78.68549 33663 ft 456 kts 356°
2026-05-04 03:03 1.34027 -78.68946 33916 ft 457 kts 356°
2026-05-04 03:03 1.37191 -78.69334 34181 ft 458 kts 356°
2026-05-04 03:04 1.40352 -78.69724 34475 ft 457 kts 356°
2026-05-04 03:04 1.43515 -78.70115 34762 ft 457 kts 356°
2026-05-04 03:04 1.46678 -78.70506 35049 ft 457 kts 356°
2026-05-04 03:04 1.49842 -78.70897 35307 ft 456 kts 356°
2026-05-04 03:05 1.52998 -78.71287 35552 ft 457 kts 356°
2026-05-04 03:05 1.56115 -78.71672 35810 ft 457 kts 356°
2026-05-04 03:05 1.59266 -78.72062 35968 ft 459 kts 356°
2026-05-04 03:06 1.65578 -78.72842 35942 ft 455 kts 356°
2026-05-04 03:06 1.71873 -78.73620 35941 ft 455 kts 356°
2026-05-04 03:07 1.78158 -78.74396 35967 ft 455 kts 356°
2026-05-04 03:07 1.84436 -78.75135 35974 ft 455 kts 356°
2026-05-04 03:08 1.90729 -78.75858 35973 ft 455 kts 356°
2026-05-04 03:08 1.97026 -78.76583 35963 ft 455 kts 356°
2026-05-04 03:09 2.03316 -78.77307 35963 ft 455 kts 356°
2026-05-04 03:09 2.09593 -78.78030 35963 ft 455 kts 356°
2026-05-04 03:10 2.15894 -78.78755 35963 ft 455 kts 356°
2026-05-04 03:10 2.22186 -78.79480 35963 ft 455 kts 356°
2026-05-04 03:11 2.28483 -78.80205 35962 ft 456 kts 356°
2026-05-04 03:11 2.34754 -78.80928 35963 ft 457 kts 356°
2026-05-04 03:12 2.41082 -78.81657 35961 ft 457 kts 356°
2026-05-04 03:12 2.47400 -78.82385 35960 ft 457 kts 356°
2026-05-04 03:13 2.53732 -78.83115 35962 ft 457 kts 356°
2026-05-04 03:13 2.59992 -78.83836 35960 ft 457 kts 356°
2026-05-04 03:14 2.66309 -78.84564 35960 ft 458 kts 356°
2026-05-04 03:14 2.72648 -78.85295 35960 ft 458 kts 356°
2026-05-04 03:15 2.78989 -78.86025 35959 ft 458 kts 356°
2026-05-04 03:15 2.85316 -78.86755 35961 ft 458 kts 356°
2026-05-04 03:16 2.91648 -78.87485 35960 ft 458 kts 356°
2026-05-04 03:16 2.97977 -78.88215 35960 ft 458 kts 356°
2026-05-04 03:17 3.04312 -78.88946 35960 ft 458 kts 356°
2026-05-04 03:17 3.10585 -78.89669 35960 ft 458 kts 356°
2026-05-04 03:18 3.16919 -78.90400 35957 ft 458 kts 356°
2026-05-04 03:18 3.23248 -78.91130 35958 ft 457 kts 356°
2026-05-04 03:19 3.29575 -78.91860 35959 ft 458 kts 356°
2026-05-04 03:19 3.35893 -78.92589 35958 ft 458 kts 356°
2026-05-04 03:20 3.42226 -78.93320 35958 ft 457 kts 356°
2026-05-04 03:20 3.48549 -78.94050 35958 ft 457 kts 356°
2026-05-04 03:21 3.54878 -78.94780 35959 ft 457 kts 356°
2026-05-04 03:21 3.61143 -78.95504 35958 ft 457 kts 356°
2026-05-04 03:22 3.67478 -78.96235 35956 ft 457 kts 356°
2026-05-04 03:22 3.73810 -78.96967 35961 ft 457 kts 356°
2026-05-04 03:23 3.80122 -78.97696 35955 ft 457 kts 356°
2026-05-04 03:23 3.86423 -78.98423 35958 ft 457 kts 356°
2026-05-04 03:24 3.92737 -78.99153 35959 ft 456 kts 356°
2026-05-04 03:24 3.99015 -78.99879 35958 ft 456 kts 356°
2026-05-04 03:25 4.05327 -79.00608 35960 ft 456 kts 356°
2026-05-04 03:25 4.10566 -79.01214 35960 ft 456 kts 356°
2026-05-04 03:26 4.16882 -79.01944 35959 ft 457 kts 356°
2026-05-04 03:26 4.23207 -79.02675 35961 ft 457 kts 356°
2026-05-04 03:27 4.29523 -79.03406 35961 ft 457 kts 356°
2026-05-04 03:27 4.35828 -79.04135 35961 ft 457 kts 356°
2026-05-04 03:28 4.42144 -79.04866 35959 ft 457 kts 356°
2026-05-04 03:28 4.48417 -79.05592 35961 ft 457 kts 356°
2026-05-04 03:29 4.54737 -79.06323 35961 ft 457 kts 356°
2026-05-04 03:29 4.61052 -79.07054 35960 ft 458 kts 356°
2026-05-04 03:30 4.67378 -79.07786 35959 ft 457 kts 356°
2026-05-04 03:30 4.73704 -79.08519 35961 ft 457 kts 356°
2026-05-04 03:31 4.80026 -79.09251 35961 ft 457 kts 356°
2026-05-04 03:31 4.86301 -79.09978 35958 ft 457 kts 356°
2026-05-04 03:32 4.92627 -79.10711 35961 ft 457 kts 355°
2026-05-04 03:32 4.98938 -79.11442 35958 ft 457 kts 355°
2026-05-04 03:33 5.05258 -79.12175 35956 ft 457 kts 355°
2026-05-04 03:33 5.11573 -79.12906 35958 ft 456 kts 355°
2026-05-04 03:34 5.17892 -79.13639 35956 ft 457 kts 355°
2026-05-04 03:34 5.24158 -79.14366 35961 ft 457 kts 355°
2026-05-04 03:35 5.30468 -79.15098 35959 ft 457 kts 355°
2026-05-04 03:35 5.36789 -79.15831 35957 ft 457 kts 355°
2026-05-04 03:36 5.43111 -79.16565 35955 ft 457 kts 355°
2026-05-04 03:36 5.49436 -79.17299 35955 ft 457 kts 355°
2026-05-04 03:37 5.55748 -79.18032 35955 ft 457 kts 355°
2026-05-04 03:37 5.62028 -79.18761 35954 ft 457 kts 355°
2026-05-04 03:38 5.68367 -79.19497 35955 ft 458 kts 355°
2026-05-04 03:38 5.74711 -79.20234 35952 ft 458 kts 355°
2026-05-04 03:39 5.81051 -79.20971 35951 ft 458 kts 355°
2026-05-04 03:39 5.87349 -79.21702 35952 ft 458 kts 355°
2026-05-04 03:40 5.93679 -79.22440 35953 ft 458 kts 355°
2026-05-04 03:40 6.00018 -79.23194 35947 ft 458 kts 355°
2026-05-04 03:41 6.06360 -79.23946 35950 ft 460 kts 355°
2026-05-04 03:41 6.12714 -79.24700 35949 ft 460 kts 355°
2026-05-04 03:42 6.19065 -79.25453 35951 ft 460 kts 355°
2026-05-04 03:42 6.25424 -79.26208 35949 ft 459 kts 355°
2026-05-04 03:43 6.31762 -79.26961 35945 ft 459 kts 355°
2026-05-04 03:43 6.38079 -79.27711 35948 ft 459 kts 354°
2026-05-04 03:44 6.44416 -79.28464 35952 ft 459 kts 354°
2026-05-04 03:44 6.50764 -79.29218 35950 ft 459 kts 354°
2026-05-04 03:45 6.57102 -79.29972 35948 ft 459 kts 354°
2026-05-04 03:45 6.63451 -79.30726 35949 ft 459 kts 354°
2026-05-04 03:46 6.69793 -79.31480 35948 ft 459 kts 354°
2026-05-04 03:46 6.76104 -79.32231 35950 ft 459 kts 354°
2026-05-04 03:47 6.82389 -79.32980 35569 ft 450 kts 354°
2026-05-04 03:47 6.85505 -79.33351 34865 ft 453 kts 354°
2026-05-04 03:47 6.88648 -79.33725 34195 ft 455 kts 353°
2026-05-04 03:47 6.91795 -79.34099 33645 ft 453 kts 353°
2026-05-04 03:48 6.94917 -79.34470 33134 ft 450 kts 353°
2026-05-04 03:48 6.98011 -79.34838 32630 ft 446 kts 353°
2026-05-04 03:48 7.01087 -79.35205 32129 ft 443 kts 354°
2026-05-04 03:48 7.04145 -79.35569 31633 ft 441 kts 354°
2026-05-04 03:49 7.07171 -79.35929 31148 ft 438 kts 354°
2026-05-04 03:49 7.10156 -79.36285 30672 ft 436 kts 354°
2026-05-04 03:49 7.13163 -79.36643 30194 ft 433 kts 354°
2026-05-04 03:49 7.16154 -79.37000 29665 ft 431 kts 354°
2026-05-04 03:50 7.19129 -79.37355 29142 ft 428 kts 354°
2026-05-04 03:50 7.22080 -79.37706 28680 ft 424 kts 354°
2026-05-04 03:50 7.24995 -79.38054 28245 ft 420 kts 354°
2026-05-04 03:50 7.27891 -79.38399 27792 ft 417 kts 354°
2026-05-04 03:51 7.30706 -79.38817 27320 ft 415 kts 347°
2026-05-04 03:51 7.33516 -79.39484 26849 ft 413 kts 348°
2026-05-04 03:51 7.36307 -79.40112 26461 ft 409 kts 348°
2026-05-04 03:51 7.39085 -79.40723 26044 ft 406 kts 348°
2026-05-04 03:52 7.41843 -79.41321 25630 ft 404 kts 348°
2026-05-04 03:52 7.44585 -79.41914 25211 ft 402 kts 348°
2026-05-04 03:52 7.47316 -79.42504 24795 ft 400 kts 348°
2026-05-04 03:52 7.50037 -79.43091 24378 ft 399 kts 348°
2026-05-04 03:53 7.52747 -79.43677 23977 ft 398 kts 348°
2026-05-04 03:53 7.55440 -79.44257 23571 ft 397 kts 348°
2026-05-04 03:53 7.58142 -79.44840 23091 ft 396 kts 348°
2026-05-04 03:53 7.60797 -79.45414 22647 ft 385 kts 349°
2026-05-04 03:54 7.63339 -79.45963 22279 ft 372 kts 349°
2026-05-04 03:54 7.65834 -79.46501 21899 ft 361 kts 349°
2026-05-04 03:54 7.68266 -79.47026 21547 ft 355 kts 349°
2026-05-04 03:54 7.70676 -79.47547 21170 ft 354 kts 349°
2026-05-04 03:55 7.73080 -79.48066 20807 ft 352 kts 349°
2026-05-04 03:55 7.75473 -79.48583 20447 ft 351 kts 349°
2026-05-04 03:55 7.77863 -79.49100 20088 ft 349 kts 349°
2026-05-04 03:55 7.80226 -79.49610 19732 ft 348 kts 349°
2026-05-04 03:56 7.82593 -79.50122 19375 ft 347 kts 349°
2026-05-04 03:56 7.84925 -79.50626 19016 ft 346 kts 349°
2026-05-04 03:56 7.87282 -79.51136 18665 ft 345 kts 349°
2026-05-04 03:56 7.89629 -79.51643 18312 ft 345 kts 349°
2026-05-04 03:57 7.91978 -79.52151 17912 ft 344 kts 349°
2026-05-04 03:57 7.94315 -79.52656 17533 ft 343 kts 349°
2026-05-04 03:57 7.96643 -79.53160 17171 ft 341 kts 349°
2026-05-04 03:57 7.98953 -79.53660 16818 ft 339 kts 349°
2026-05-04 03:58 8.03536 -79.54651 16117 ft 335 kts 349°
2026-05-04 03:58 8.05811 -79.55143 15772 ft 333 kts 349°
2026-05-04 03:58 8.08080 -79.55607 15399 ft 332 kts 355°
2026-05-04 03:59 8.10377 -79.55648 15043 ft 329 kts
2026-05-04 03:59 8.12658 -79.55605 14732 ft 326 kts
2026-05-04 03:59 8.14920 -79.55571 14423 ft 324 kts
2026-05-04 03:59 8.17123 -79.55541 14106 ft 317 kts
2026-05-04 04:00 8.19302 -79.55513 13784 ft 309 kts
2026-05-04 04:00 8.21447 -79.55485 13436 ft 307 kts
2026-05-04 04:00 8.23575 -79.55458 13093 ft 306 kts
2026-05-04 04:00 8.25707 -79.55431 12752 ft 304 kts
2026-05-04 04:01 8.27806 -79.55405 12441 ft 302 kts
2026-05-04 04:01 8.29902 -79.55378 12122 ft 300 kts
2026-05-04 04:01 8.31984 -79.55352 11806 ft 298 kts
2026-05-04 04:01 8.34049 -79.55325 11493 ft 296 kts
2026-05-04 04:02 8.36106 -79.55300 11173 ft 295 kts
2026-05-04 04:02 8.38150 -79.55274 10863 ft 293 kts
2026-05-04 04:02 8.40185 -79.55248 10555 ft 291 kts
2026-05-04 04:02 8.42210 -79.55222 10241 ft 290 kts
2026-05-04 04:03 8.44193 -79.55197 9987 ft 287 kts
2026-05-04 04:03 8.46184 -79.55172 9687 ft 285 kts
2026-05-04 04:03 8.48162 -79.55147 9349 ft 284 kts
2026-05-04 04:03 8.50105 -79.55122 9019 ft 274 kts
2026-05-04 04:04 8.51987 -79.55099 8748 ft 269 kts
2026-05-04 04:04 8.53847 -79.55075 8455 ft 267 kts
2026-05-04 04:04 8.55707 -79.55051 8167 ft 266 kts
2026-05-04 04:04 8.57539 -79.55028 8016 ft 261 kts
2026-05-04 04:05 8.59325 -79.55005 7993 ft 254 kts
2026-05-04 04:05 8.61087 -79.54983 7730 ft 253 kts
2026-05-04 04:05 8.62858 -79.54960 7358 ft 255 kts
2026-05-04 04:05 8.64636 -79.54938 7053 ft 255 kts
2026-05-04 04:06 8.66410 -79.54915 6754 ft 254 kts
2026-05-04 04:06 8.68152 -79.54893 6472 ft 253 kts
2026-05-04 04:06 8.69911 -79.54870 6186 ft 252 kts
2026-05-04 04:06 8.71665 -79.54848 5882 ft 251 kts
2026-05-04 04:07 8.73408 -79.54825 5600 ft 250 kts
2026-05-04 04:07 8.75139 -79.54803 5322 ft 248 kts
2026-05-04 04:07 8.76862 -79.54781 5046 ft 246 kts
2026-05-04 04:07 8.78566 -79.54759 4779 ft 245 kts
2026-05-04 04:08 8.80254 -79.54607 4487 ft 244 kts 18°
2026-05-04 04:08 8.81707 -79.53769 4281 ft 239 kts 36°
2026-05-04 04:08 8.83019 -79.52791 4147 ft 230 kts 35°
2026-05-04 04:08 8.84278 -79.51843 4047 ft 221 kts 36°
2026-05-04 04:09 8.85485 -79.50925 3924 ft 212 kts 36°
2026-05-04 04:09 8.86634 -79.50045 3871 ft 199 kts 36°
2026-05-04 04:09 8.87678 -79.49240 3775 ft 185 kts 36°
2026-05-04 04:09 8.88694 -79.48486 3597 ft 178 kts 32°
2026-05-04 04:10 8.89734 -79.47820 3331 ft 175 kts 30°
2026-05-04 04:10 8.90780 -79.47203 3079 ft 172 kts 28°
2026-05-04 04:10 8.91807 -79.46613 2858 ft 165 kts 28°
2026-05-04 04:10 8.92789 -79.46055 2639 ft 159 kts 28°
2026-05-04 04:11 8.93749 -79.45509 2423 ft 157 kts 27°
2026-05-04 04:11 8.94709 -79.44964 2235 ft 158 kts 28°
2026-05-04 04:11 8.95647 -79.44432 2057 ft 152 kts 27°
2026-05-04 04:11 8.96543 -79.43924 1829 ft 149 kts 28°
2026-05-04 04:12 8.97449 -79.43409 1637 ft 150 kts 27°
2026-05-04 04:12 8.98358 -79.42894 1463 ft 150 kts 26°
2026-05-04 04:12 8.99266 -79.42380 1227 ft 149 kts 28°
2026-05-04 04:12 9.00164 -79.41869 1046 ft 148 kts 28°
2026-05-04 04:13 9.01064 -79.41358 869 ft 149 kts 28°
2026-05-04 04:13 9.01972 -79.40843 683 ft 150 kts 28°
2026-05-04 04:13 9.02884 -79.40326 487 ft 151 kts 28°
2026-05-04 04:13 9.03799 -79.39802 278 ft 151 kts 27°
2026-05-04 04:14 9.04719 -79.39285 102 ft 151 kts 27°
2026-05-04 04:14 9.05316 -79.38950 35 ft 141 kts 28°
2026-05-04 04:14 9.06046 -79.38532 34 ft 88 kts 29°
2026-05-04 04:14 9.06478 -79.38376 32 ft 30 kts 359°
2026-05-04 04:15 9.06607 -79.38381 32 ft 15 kts 347°
2026-05-04 04:15 9.06659 -79.38426 32 ft 13 kts 297°
2026-05-04 04:15 9.06614 -79.38487 32 ft 13 kts 202°
2026-05-04 04:15 9.06524 -79.38532 32 ft 16 kts 208°
2026-05-04 04:16 9.06419 -79.38588 32 ft 18 kts 205°
2026-05-04 04:16 9.06328 -79.38640 32 ft 9 kts 239°
2026-05-04 04:16 9.06343 -79.38691 32 ft 9 kts 303°
2026-05-04 04:16 9.06352 -79.38763 32 ft 13 kts 224°
2026-05-04 04:17 9.06239 -79.38789 32 ft 20 kts 201°
2026-05-04 04:17 9.06136 -79.38854 32 ft 9 kts 230°
2026-05-04 04:17 9.06097 -79.38916 32 ft 12 kts 237°
2026-05-04 04:17 9.06092 -79.38959 32 ft 7 kts 274°
2026-05-04 04:18 9.06101 -79.38992 32 ft 4 kts 314°
2026-05-04 04:18 9.06123 -79.39001 32 ft 3 kts 343°
2026-05-04 04:18 9.06130 -79.39003 32 ft 0 kts 342°